COSMOS 2251 DEB

Satellite information

Favourite Embed

Satellite Type and Status

DEBRISIN ORBIT

Key statistics

Satellite COSMOS 2251 DEB at a glance.

Uptime

11823

Days in orbit

Revolutions

≈ 14.6

Per day

Orbit

LEO

Low Earth Orbit

Inclination

74.1

Latest

Satellite identification and parameters

Extended collection of information and parameters for COSMOS 2251 DEB.

Object identification

Identified? True

Debris? True

Object name: COSMOS 2251 DEB

International designator: 1993-036AVY

Object number (NORAD): 35982

Object ID (CCSDS): 35982

Country: COMMONWEALTH OF INDEPENDENT STATES (CIS)

Current information (Y/N): Y

RCS size: SMALL

Orbital parameters

Period: 98.471 minutes

Inclination: 74.0574 deg

SMA: 7063.723 km

Apoapsis: 732.095 km

Periapsis: 639.081 km

RAAN: 74.8635 deg

Eccentricy: 0.00658386

Argument of periapsis: 155.0348 deg

Mean anomaly: 205.4029 deg

Mean motion: 14.62353178 rev/day

Mean motion (dot): 0.00004919 rev/day2

B* drag term: 0.00094887987 1/REarth

Two-line elements (TLE)

Creation date: Oct. 28, 2025, 2:18 a.m.

Reference frame: TEME

Reference center: EARTH

Epoch: Oct. 27, 2025, 6:53 p.m. UTC

TLE line 0: 0 COSMOS 2251 DEB

TLE line 1: 1 35982U 93036AVY 25300.78748044 .00004919 00000-0 94888-3 0 9993

TLE line 2: 2 35982 74.0574 74.8635 0065839 155.0348 205.4029 14.62353178854948

Live tracking on map

Real-time ground track for satellite COSMOS 2251 DEB.

In-orbit conjunctions

A list of the most updated potential collisions computed for object COSMOS 2251 DEB.

Target Orbit TCA Probability of collision Miss distance Type
NOAA 16 DEB SSO 2025-08-23 12:01:45 0.0001254007 163.0 (m) DEBRIS
CZ-6A DEB LEO 2025-01-22 10:20:46 0.0002257237 456.0 (m) DEBRIS
ATLAS AGENA D R/B LEO 2024-07-02 19:51:17 0.0002407114 27.0 (m) ROCKET BODY

Associated space launch

Military communications satellite. Destroyed in a collision with Iridium 33.

COSMOS 2251 DEB was lifted into orbit during the mission ‘Kosmos-3M | Strela-2M 51’, on board a Kosmos-3M space rocket.

The launch took place on June 16, 1993, 4:17 a.m. from 132/1 (132L).

For more information about the launch, click the button.

Launch to space Kosmos-3M | Strela-2M 51
Kosmos-3M | Strela-2M 51

Agency: N/A

Status: Launch Successful

Launch date: June 16, 1993, 4:17 a.m. UTC

Rocket: Kosmos-3M

Launch pad: 132/1 (132L)

Location: Plesetsk Cosmodrome, Russian Federation

...

Latest news about this satellite

There are no fresh news available about this satellite. Check back as we update our databases every day.


Newsletter sign-up

Weekly statistics, charts and insights to help you stay on top of the space industry.